[[{"header":{"parameterUnit":"m.s-1","parameterCategory":2,"la1":30.2991,"la2":30.254,"lo1":-89.0895,"lo2":-89.0444,"dy":0.0017,"dx":0.0017,"nx":28,"ny":28,"refTime":"2025-02-02T09:00:00:Z","depth":"0","parameterNumber":2,"parameterNumberName":"U-component_of_CURRENTS"},"data":[0,0,0,0,0,0,0,0,0,0,0,0,0,0,0,0,0,0,0,0,0,0,0,0,0,0,0,0,0,0,0,0,0,0,0,0,0,0,0,0,0,0,0,0,0,0,0,0,0,0,0,0,0,0,0,0,0,0,0.1631,0.1632,0,0.1682,0.1682,0.1683,0.1734,0.1735,0.1736,0.1737,0.1813,0.1814,0.1815,0,0,0,0,0,0,0,0,0,0,0,0,0,0.1601,0.1601,0.1631,0.1632,0.1633,0.1682,0.1682,0.1683,0.1734,0.1735,0.1736,0.1737,0.1812,0.1814,0.1815,0,0,0,0,0,0,0,0,0,0,0,0,0,0.1626,0.1601,0.1631,0.1666,0.167,0.1682,0.1682,0.1683,0.1734,0.1735,0.1737,0.1738,0.1812,0.1813,0.1815,0.1797,0,0,0.182,0.1821,0,0,0,0,0,0,0,0,0.1625,0.1627,0.166,0.1664,0.1668,0.1706,0.17,0.1723,0.1733,0.1707,0.1737,0.1739,0.178,0.1784,0.1786,0.1801,0.1804,0.182,0.1821,0.1822,0.1823,0,0,0,0,0,0,0,0.1623,0.1625,0.1648,0.1661,0.1666,0.1688,0.1692,0.1704,0.1733,0.1709,0.1714,0.1723,0.1782,0.1785,0.1789,0.1805,0.182,0.1822,0.1823,0.1824,0.1912,0.1913,0,0,0,0,0,0,0.1619,0.1623,0.1647,0.165,0.1653,0.1687,0.1692,0.169,0.1732,0.1741,0.1722,0.1726,0.1781,0.1787,0.1792,0.1834,0.1822,0.1824,0.1825,0.191,0.1912,0.1913,0,0,0,0,0,0,0.1618,0.162,0.1645,0.1641,0.1646,0.1686,0.1683,0.169,0.1694,0.1743,0.1751,0.1719,0.1782,0.1789,0.1818,0.1835,0.1824,0.1826,0.1909,0.1911,0.1913,0.188,0,0,0,0,0,0,0.1617,0.1619,0.1609,0.164,0.1646,0.1645,0.1682,0.169,0.1699,0.1704,0.1743,0.1751,0.1784,0.1816,0.182,0.1838,0.1827,0.1907,0.191,0.1912,0.188,0.1881,0.1882,0,0,0,0,0,0.1615,0.1598,0.1607,0.1611,0.1632,0.1645,0.1649,0.1681,0.1697,0.169,0.1734,0.175,0.1836,0.1817,0.1822,0.1841,0.1906,0.1909,0.1912,0.1879,0.1881,0.1882,0,0,0,0,0,0,0.1578,0.1603,0.1614,0.1604,0.162,0.1655,0.1653,0.1671,0.1696,0.1703,0.175,0.1761,0.1803,0.1822,0.1801,0.1879,0.188,0.1884,0.1853,0.1855,0.1856,0.1901,0.1829,0,0,0,0,0,0.1563,0.1559,0.1586,0.1577,0.1583,0.1613,0.162,0.1638,0.1669,0.1681,0.1716,0.1764,0.1816,0.1834,0.1875,0.1894,0.1959,0.1918,0.1919,0.1919,0.1963,0.2074,0.209,0.1923,0.1923,0.1923,0,0,0.1549,0.1561,0.156,0.1569,0.1585,0.1597,0.162,0.1624,0.1649,0.1684,0.1723,0.1762,0.1825,0.1868,0.1888,0.1884,0.1993,0.1923,0.1923,0.1968,0.2079,0.2096,0.211,0.1925,0.1925,0.1925,0,0,0.1526,0.1524,0.1519,0.1529,0.1547,0.157,0.1568,0.1597,0.1624,0.1654,0.171,0.1767,0.1809,0.1882,0.192,0.195,0.1999,0.195,0.1984,0.209,0.2105,0.2119,0.2185,0.2206,0.1945,0.1945,0.1945,0,0.1508,0.1514,0.1518,0.152,0.1543,0.1558,0.1574,0.1593,0.1632,0.1684,0.1665,0.1813,0.1834,0.1953,0.1962,0.1956,0.2011,0.1964,0.2092,0.2108,0.2123,0.2188,0.2211,0.1944,0.1944,0.1944,0.1944,0,0.1495,0.15,0.1496,0.1516,0.1528,0.1539,0.1576,0.1602,0.1633,0.1683,0.179,0.1836,0.1944,0.1942,0.1954,0.208,0.2081,0.2079,0.2085,0.2138,0.2202,0.2227,0.1942,0.1943,0.1943,0.1943,0,0,0.147,0.1488,0.149,0.1515,0.1536,0.1555,0.1596,0.1674,0.174,0.1779,0.1892,0.1966,0.2015,0.2066,0.2094,0.2165,0.2276,0.2159,0.2165,0.2219,0.2493,0.2478,0.2503,0.2293,0.2298,0.2302,0.2481,0,0.1472,0.149,0.1501,0.1537,0.156,0.1599,0.1645,0.1712,0.1776,0.1876,0.1968,0.2067,0.2055,0.2104,0.2183,0.2267,0.2348,0.2228,0.2442,0.2449,0.2426,0.2535,0.2535,0.2695,0.2505,0.2509,0.2512,0,0.1471,0.149,0.1525,0.1588,0.1603,0.1625,0.1741,0.1785,0.1919,0.1973,0.2101,0.2171,0.2313,0.2268,0.2481,0.2404,0.2463,0.2508,0.2516,0.2547,0.2483,0.2622,0.2748,0.2608,0.2551,0.2548,0.2545,0,0.1486,0.1518,0.156,0.1575,0.1633,0.1677,0.1719,0.1829,0.1898,0.2052,0.2126,0.2301,0.2391,0.2519,0.261,0.2562,0.282,0.2766,0.2819,0.2815,0.2888,0.2884,0.2913,0.2938,0.2938,0.2937,0.2937,0,0.1504,0.1538,0.157,0.1594,0.1659,0.1691,0.1785,0.1853,0.197,0.2067,0.2185,0.2299,0.2458,0.261,0.268,0.2843,0.2895,0.2879,0.2891,0.2869,0.2862,0.28,0.2735,0.2944,0.2943,0.2941,0.294,0,0.1522,0.154,0.1591,0.1648,0.1666,0.1715,0.1796,0.1861,0.1968,0.2099,0.2154,0.2341,0.2543,0.2695,0.29,0.2933,0.3011,0.3111,0.3052,0.3054,0.2945,0.288,0.2907,0.2839,0.3218,0.322,0.3221,0,0.1534,0.1561,0.1621,0.1635,0.1659,0.1722,0.1757,0.1855,0.1919,0.212,0.2183,0.2416,0.2568,0.2874,0.3029,0.3215,0.3075,0.3262,0.3178,0.2988,0.2926,0.2759,0.2686,0.3247,0.3248,0.3249,0.325,0,0.1556,0.1578,0.1608,0.1642,0.1671,0.1714,0.177,0.1821,0.194,0.2054,0.2209,0.235,0.2678,0.2879,0.3121,0.3238,0.3114,0.3282,0.314,0.3021,0.28,0.2721,0.303,0.3258,0.3257,0.3257,0.3256,0.3256,0.1556,0.1577,0.1601,0.1636,0.1657,0.1676,0.1695,0.1767,0.1861,0.2002,0.2162,0.2349,0.2676,0.3045,0.3129,0.325,0.3172,0.319,0.3149,0.301,0.2884,0.3184,0.3377,0.3377,0.3376,0.3376,0.3376,0,0.1532,0.1551,0.1582,0.1598,0.1591,0.1626,0.1672,0.1683,0.1753,0.1939,0.2075,0.2401,0.2654,0.2908,0.3164,0.3101,0.2999,0.3026,0.2803,0.2756,0.3105,0.3041,0.3103,0.3103,0.3104,0.3104,0.3104,0.3104,0.151,0.1521,0.1542,0.1516,0.1518,0.1488,0.1496,0.1539,0.1652,0.1826,0.2002,0.2195,0.2531,0.2866,0.2944,0.2922,0.2662,0.2619,0.2505,0.2743,0.2752,0.2761,0.2681,0.2668,0.2668,0.2099,0.2095,0.2092]},{"header":{"parameterUnit":"m.s-1","parameterCategory":2,"la1":30.2991,"la2":30.254,"lo1":-89.0895,"lo2":-89.0444,"dy":0.0017,"dx":0.0017,"nx":28,"ny":28,"refTime":"2025-02-02T09:00:00:Z","depth":"0","parameterNumber":3,"parameterNumberName":"V-component_of_CURRENTS"},"data":[0,0,0,0,0,0,0,0,0,0,0,0,0,0,0,0,0,0,0,0,0,0,0,0,0,0,0,0,0,0,0,0,0,0,0,0,0,0,0,0,0,0,0,0,0,0,0,0,0,0,0,0,0,0,0,0,0,0,0.1001,0.1001,0,0.0995,0.0995,0.0995,0.0992,0.0992,0.0992,0.0992,0.0996,0.0996,0.0996,0,0,0,0,0,0,0,0,0,0,0,0,0,0.1006,0.1006,0.1001,0.1001,0.1001,0.0995,0.0995,0.0995,0.0992,0.0992,0.0992,0.0992,0.0996,0.0996,0.0996,0,0,0,0,0,0,0,0,0,0,0,0,0,0.1002,0.1006,0.1001,0.0999,0.0999,0.0995,0.0995,0.0995,0.0992,0.0992,0.0992,0.0992,0.0996,0.0996,0.0996,0.0997,0,0,0.0996,0.0996,0,0,0,0,0,0,0,0,0.1002,0.1002,0.0999,0.0999,0.0999,0.0994,0.0998,0.0996,0.0992,0.0995,0.0992,0.0992,0.0996,0.0996,0.0995,0.0997,0.0997,0.0996,0.0996,0.0996,0.0997,0,0,0,0,0,0,0,0.1003,0.1002,0.0999,0.0999,0.0999,0.0996,0.0996,0.0997,0.0996,0.0994,0.0994,0.0993,0.0996,0.0995,0.0995,0.0997,0.0996,0.0996,0.0997,0.0997,0.0998,0.0998,0,0,0,0,0,0,0.1003,0.1002,0.0999,0.0999,0.1,0.0996,0.0996,0.0996,0.0995,0.0995,0.0993,0.0993,0.0995,0.0995,0.0995,0.1013,0.0996,0.0997,0.0997,0.0998,0.0998,0.0998,0,0,0,0,0,0,0.1004,0.1003,0.0999,0.1,0.1,0.0996,0.0996,0.0996,0.0989,0.0994,0.0995,0.0987,0.0995,0.0995,0.1003,0.1013,0.0997,0.0997,0.0998,0.0998,0.0998,0.1039,0,0,0,0,0,0,0.1004,0.1003,0.1004,0.1,0.1,0.0989,0.0996,0.0995,0.0989,0.0989,0.0989,0.099,0.0995,0.1003,0.1003,0.1013,0.0997,0.0998,0.0998,0.0998,0.1038,0.104,0.1042,0,0,0,0,0,0.1004,0.0998,0.1004,0.1004,0.1,0.0988,0.0987,0.0985,0.0989,0.098,0.0994,0.099,0.1002,0.1004,0.1004,0.1013,0.0999,0.0998,0.0998,0.1036,0.104,0.1042,0,0,0,0,0,0,0.1003,0.0998,0.1004,0.0998,0.0992,0.0987,0.0981,0.0981,0.0984,0.0989,0.0995,0.0996,0.1007,0.0999,0.1,0.1011,0.0997,0.0997,0.1026,0.1029,0.1031,0.1044,0.0997,0,0,0,0,0,0.1004,0.0997,0.0994,0.099,0.0987,0.0985,0.0981,0.098,0.0982,0.0983,0.0986,0.0993,0.1007,0.1009,0.1014,0.102,0.0998,0.1022,0.1025,0.1027,0.1035,0.1012,0.1013,0.0998,0.0998,0.0998,0,0,0.1004,0.1,0.0998,0.099,0.0987,0.099,0.0982,0.0973,0.0986,0.0984,0.0999,0.1002,0.101,0.1025,0.1027,0.102,0.1015,0.1027,0.1029,0.1036,0.1012,0.1013,0.1015,0.0998,0.0998,0.0998,0,0,0.0997,0.0996,0.0988,0.0983,0.0976,0.0985,0.0982,0.0977,0.0981,0.0994,0.1004,0.1012,0.1021,0.1035,0.1044,0.1057,0.1031,0.1052,0.1077,0.1054,0.1055,0.1056,0.1015,0.1012,0.1052,0.1052,0.1052,0,0.1001,0.0998,0.0984,0.0976,0.0987,0.0985,0.0995,0.0997,0.0998,0.1023,0.1001,0.1039,0.103,0.1075,0.1074,0.1065,0.104,0.107,0.1058,0.1058,0.1059,0.1016,0.1013,0.1054,0.1054,0.1053,0.1053,0,0.0985,0.0991,0.0985,0.099,0.0996,0.0999,0.101,0.1028,0.104,0.1052,0.1085,0.1073,0.1105,0.109,0.1086,0.1097,0.1073,0.1066,0.1054,0.1063,0.1017,0.1013,0.1057,0.1056,0.1055,0.1055,0,0,0.0993,0.098,0.0983,0.1008,0.101,0.1027,0.1055,0.1099,0.1154,0.113,0.1191,0.1177,0.1176,0.1184,0.1173,0.1137,0.1099,0.11,0.1098,0.1066,0.1034,0.1019,0.1012,0.1091,0.1091,0.109,0.0996,0,0.1,0.0999,0.0996,0.104,0.1057,0.1083,0.1126,0.1165,0.1197,0.1251,0.1235,0.1277,0.1211,0.1237,0.119,0.1148,0.1091,0.1125,0.1025,0.1021,0.1014,0.1009,0.1027,0.0945,0.0991,0.099,0.0989,0,0.1001,0.101,0.1031,0.1105,0.1119,0.1149,0.1259,0.1296,0.1361,0.1385,0.1407,0.1404,0.1386,0.1314,0.1211,0.1237,0.1131,0.1062,0.1057,0.1031,0.1,0.0946,0.0935,0.0741,0.0982,0.0983,0.0983,0,0.1029,0.1058,0.1088,0.1098,0.1158,0.1205,0.1262,0.1339,0.1403,0.1476,0.1524,0.1505,0.1505,0.1386,0.1244,0.1231,0.1106,0.1077,0.0952,0.0949,0.0939,0.0936,0.0739,0.0967,0.0967,0.0968,0.0968,0,0.1047,0.1083,0.1107,0.1121,0.1213,0.1246,0.1356,0.1419,0.151,0.1594,0.1593,0.1642,0.1517,0.1442,0.1286,0.1116,0.1136,0.0955,0.0929,0.0951,0.0951,0.0762,0.0655,0.0964,0.0965,0.0966,0.0966,0,0.1065,0.1067,0.1119,0.1183,0.1216,0.1285,0.1406,0.1491,0.1571,0.168,0.1708,0.1739,0.1659,0.1511,0.1329,0.118,0.0911,0.0936,0.0964,0.0943,0.0661,0.0557,0.0374,0.0278,0.0797,0.0796,0.0796,0,0.1068,0.1086,0.1154,0.1194,0.1222,0.1321,0.1398,0.1507,0.1598,0.1734,0.1791,0.1776,0.1783,0.1538,0.1292,0.1042,0.0859,0.0866,0.084,0.0644,0.0507,0.0462,0.0391,0.0829,0.0828,0.0828,0.0828,0,0.1088,0.1103,0.1138,0.1214,0.1288,0.1391,0.1507,0.1588,0.1723,0.1816,0.1927,0.1954,0.1773,0.1574,0.1257,0.1075,0.075,0.0851,0.0644,0.0512,0.0454,0.0351,0.0872,0.0825,0.0825,0.0825,0.0826,0.0826,0.1101,0.1129,0.1167,0.1249,0.1336,0.1457,0.1544,0.1668,0.1812,0.1968,0.2003,0.2071,0.1826,0.1432,0.1148,0.068,0.0679,0.0532,0.0419,0.039,0.0305,0.0813,0.0743,0.0743,0.0743,0.0743,0.0743,0,0.1106,0.1138,0.1209,0.1305,0.14,0.1452,0.1617,0.171,0.186,0.201,0.2109,0.2073,0.1694,0.1305,0.0695,0.0316,0.0204,0.0117,0.0038,-0.0019,0.0429,0.0438,0.0304,0.0305,0.0305,0.0305,0.0305,0.0305,0.1106,0.1151,0.1192,0.1335,0.1415,0.1553,0.1644,0.1781,0.1918,0.208,0.2164,0.2241,0.1964,0.0858,0.0058,-0.0102,-0.0391,-0.0406,-0.0575,-0.0297,-0.0267,-0.0238,-0.0256,-0.0533,-0.0534,-0.0946,-0.0951,-0.0955]}],[{"header":{"parameterUnit":"m.s-1","parameterCategory":2,"la1":30.2991,"la2":30.254,"lo1":-89.0895,"lo2":-89.0444,"dy":0.0017,"dx":0.0017,"nx":28,"ny":28,"refTime":"2025-02-02T09:00:00:Z","depth":"2","parameterNumber":2,"parameterNumberName":"U-component_of_CURRENTS"},"data":[0,0,0,0,0,0,0,0,0,0,0,0,0,0,0,0,0,0,0,0,0,0,0,0,0,0,0,0,0,0,0,0,0,0,0,0,0,0,0,0,0,0,0,0,0,0,0,0,0,0,0,0,0,0,0,0,0,0,0.1533,0.1533,0,0.1552,0.1552,0.1552,0.1556,0.1556,0.1556,0.1556,0.1549,0.1549,0.1549,0,0,0,0,0,0,0,0,0,0,0,0,0,0.1506,0.1506,0.1533,0.1533,0.1534,0.1552,0.1552,0.1552,0.1556,0.1556,0.1556,0.1556,0.1549,0.1549,0.1549,0,0,0,0,0,0,0,0,0,0,0,0,0,0.1519,0.1506,0.1533,0.1539,0.154,0.1552,0.1552,0.1552,0.1555,0.1556,0.1556,0.1556,0.1549,0.1549,0.1549,0.1547,0,0,0.1548,0.1548,0,0,0,0,0,0,0,0,0.1518,0.152,0.1538,0.1538,0.1539,0.1553,0.154,0.155,0.1555,0.1548,0.1556,0.1556,0.1549,0.1549,0.1551,0.1547,0.1547,0.1548,0.1548,0.1548,0.1548,0,0,0,0,0,0,0,0.1517,0.1519,0.1539,0.1538,0.1539,0.1543,0.1544,0.1542,0.1546,0.1548,0.1549,0.1554,0.1549,0.1551,0.155,0.1547,0.1548,0.1548,0.1548,0.1548,0.1575,0.1576,0,0,0,0,0,0,0.1518,0.1518,0.1538,0.1539,0.153,0.1543,0.1545,0.1547,0.1547,0.1548,0.1554,0.1554,0.1551,0.1551,0.155,0.1573,0.1548,0.1548,0.1548,0.1574,0.1575,0.1576,0,0,0,0,0,0,0.1517,0.1519,0.1537,0.1531,0.1533,0.1544,0.1546,0.1548,0.1558,0.1552,0.1552,0.1564,0.1551,0.155,0.1561,0.1572,0.1548,0.1547,0.1573,0.1574,0.1576,0.1603,0,0,0,0,0,0,0.1516,0.1519,0.1525,0.1531,0.1534,0.1549,0.1546,0.1548,0.1561,0.1562,0.1561,0.156,0.1551,0.1562,0.1561,0.1571,0.1547,0.1572,0.1574,0.1575,0.1601,0.1605,0.1608,0,0,0,0,0,0.1515,0.1518,0.1525,0.1528,0.154,0.1549,0.1551,0.1557,0.1562,0.1567,0.1572,0.156,0.1572,0.1562,0.1561,0.1571,0.1571,0.1573,0.1575,0.1599,0.1604,0.1608,0,0,0,0,0,0,0.1508,0.1519,0.1526,0.1533,0.1544,0.155,0.1557,0.1564,0.1573,0.1575,0.157,0.1569,0.1582,0.1576,0.1566,0.1585,0.157,0.1572,0.1588,0.1593,0.1597,0.1595,0.1547,0,0,0,0,0,0.1511,0.1515,0.1529,0.1534,0.1542,0.1553,0.156,0.1566,0.1573,0.1577,0.1581,0.1584,0.1588,0.1591,0.1591,0.1601,0.1615,0.1608,0.1612,0.1615,0.1615,0.1645,0.1651,0.1582,0.1582,0.1582,0,0,0.1509,0.1516,0.1519,0.1534,0.1543,0.155,0.1557,0.1569,0.1576,0.1575,0.1589,0.1596,0.1594,0.1606,0.1611,0.1603,0.1648,0.1618,0.162,0.1618,0.1647,0.1654,0.166,0.1584,0.1584,0.1583,0,0,0.1501,0.1516,0.1516,0.1528,0.1546,0.1554,0.1561,0.1577,0.1587,0.1604,0.1606,0.1623,0.1629,0.1632,0.1633,0.1659,0.1666,0.1662,0.1679,0.1708,0.1714,0.1719,0.1768,0.1777,0.1664,0.1664,0.1664,0,0.1498,0.1502,0.1518,0.1524,0.1535,0.1557,0.1562,0.1575,0.1594,0.1608,0.1611,0.1642,0.1639,0.1657,0.1667,0.1666,0.1693,0.166,0.1713,0.1718,0.1723,0.1771,0.1781,0.1666,0.1665,0.1665,0.1665,0,0.149,0.1498,0.1501,0.1516,0.153,0.1539,0.1561,0.1581,0.1602,0.1618,0.165,0.1661,0.1681,0.1685,0.1682,0.1717,0.173,0.1714,0.17,0.1731,0.1781,0.1791,0.1668,0.1667,0.1667,0.1666,0,0,0.1461,0.1489,0.1489,0.1499,0.1528,0.1536,0.1559,0.1586,0.1611,0.1638,0.1672,0.1686,0.1709,0.1712,0.172,0.1744,0.1807,0.1747,0.1748,0.1794,0.1897,0.1835,0.184,0.1804,0.1806,0.1807,0.1926,0,0.1448,0.1454,0.1475,0.1486,0.1493,0.153,0.1553,0.1584,0.1618,0.166,0.1686,0.1722,0.1714,0.174,0.1761,0.1798,0.1831,0.1777,0.1861,0.1863,0.1802,0.1847,0.1701,0.1788,0.1936,0.1937,0.1938,0,0.1426,0.1436,0.1442,0.148,0.1488,0.1505,0.1556,0.1582,0.1644,0.1677,0.1722,0.1752,0.1803,0.1788,0.1869,0.184,0.1871,0.1894,0.1899,0.1833,0.1818,0.1776,0.18,0.1955,0.1953,0.1952,0.1951,0,0.1388,0.1412,0.1418,0.1428,0.1474,0.1494,0.1528,0.1588,0.1627,0.1699,0.1749,0.18,0.1856,0.1889,0.1949,0.1917,0.2043,0.2001,0.1977,0.1974,0.1859,0.1843,0.2052,0.2052,0.2052,0.2052,0.2051,0,0.136,0.1364,0.1404,0.1407,0.1432,0.1477,0.152,0.1566,0.1646,0.1704,0.1762,0.1826,0.1885,0.1964,0.1984,0.2028,0.2078,0.1991,0.1997,0.1866,0.185,0.199,0.1982,0.2056,0.2055,0.2054,0.2053,0,0.1311,0.1337,0.1345,0.1393,0.1413,0.1433,0.1518,0.1556,0.1642,0.1724,0.1758,0.1876,0.1981,0.2045,0.2128,0.2084,0.212,0.2122,0.1977,0.1961,0.2022,0.2014,0.2088,0.2087,0.2086,0.2085,0.2084,0,0.1281,0.1281,0.1325,0.1343,0.1367,0.1411,0.1451,0.154,0.1593,0.1751,0.1795,0.1936,0.2002,0.2113,0.2095,0.2126,0.2167,0.1979,0.1858,0.2025,0.2025,0.2018,0.2011,0.1742,0.1738,0.1736,0.1733,0,0.1227,0.1247,0.1263,0.1303,0.1341,0.1382,0.1452,0.1494,0.1613,0.1697,0.1832,0.1899,0.2002,0.1963,0.199,0.1972,0.195,0.1917,0.2155,0.1736,0.1703,0.17,0.1705,0.1708,0.171,0.1712,0.1714,0.1715,0.119,0.1194,0.1229,0.1267,0.1312,0.1364,0.1391,0.147,0.1556,0.164,0.1743,0.1776,0.1813,0.1762,0.1742,0.1724,0.1826,0.1723,0.1731,0.1742,0.1661,0.1625,0.1603,0.1605,0.1607,0.1608,0.1609,0,0.1149,0.1173,0.1198,0.1247,0.1283,0.133,0.14,0.1411,0.1488,0.1528,0.158,0.1458,0.1438,0.1509,0.1434,0.141,0.138,0.1362,0.1319,0.1346,0.137,0.1268,0.1107,0.1106,0.1104,0.1102,0,0,0.1131,0.1143,0.1163,0.121,0.1257,0.13,0.1335,0.1343,0.1364,0.1308,0.1284,0.1313,0.1432,0.1234,0.1224,0.1165,0.1239,0.1118,0.1524,0.1502,0.1523,0.1588,0.1462,0,0,0,0,0]},{"header":{"parameterUnit":"m.s-1","parameterCategory":2,"la1":30.2991,"la2":30.254,"lo1":-89.0895,"lo2":-89.0444,"dy":0.0017,"dx":0.0017,"nx":28,"ny":28,"refTime":"2025-02-02T09:00:00:Z","depth":"2","parameterNumber":3,"parameterNumberName":"V-component_of_CURRENTS"},"data":[0,0,0,0,0,0,0,0,0,0,0,0,0,0,0,0,0,0,0,0,0,0,0,0,0,0,0,0,0,0,0,0,0,0,0,0,0,0,0,0,0,0,0,0,0,0,0,0,0,0,0,0,0,0,0,0,0,0,-0.06,-0.0601,0,-0.0675,-0.0675,-0.0676,-0.0724,-0.0725,-0.0725,-0.0725,-0.0761,-0.0762,-0.0763,0,0,0,0,0,0,0,0,0,0,0,0,0,-0.051,-0.0512,-0.06,-0.0601,-0.0602,-0.0675,-0.0675,-0.0676,-0.0724,-0.0725,-0.0725,-0.0725,-0.0761,-0.0762,-0.0763,0,0,0,0,0,0,0,0,0,0,0,0,0,-0.0563,-0.0512,-0.06,-0.0636,-0.064,-0.0674,-0.0676,-0.0677,-0.0724,-0.0725,-0.0725,-0.0726,-0.0761,-0.0762,-0.0763,-0.0757,0,0,-0.0765,-0.0766,0,0,0,0,0,0,0,0,-0.0559,-0.0566,-0.0629,-0.0633,-0.0638,-0.0692,-0.0657,-0.0702,-0.0724,-0.0691,-0.0725,-0.0726,-0.0735,-0.0738,-0.075,-0.0758,-0.076,-0.0765,-0.0766,-0.0766,-0.0767,0,0,0,0,0,0,0,-0.0556,-0.0563,-0.0629,-0.063,-0.0636,-0.0652,-0.0659,-0.0666,-0.0707,-0.0694,-0.0698,-0.0707,-0.0737,-0.0749,-0.0751,-0.076,-0.0765,-0.0766,-0.0767,-0.0767,-0.0735,-0.0734,0,0,0,0,0,0,-0.0548,-0.0559,-0.0626,-0.0631,-0.06,-0.0653,-0.0661,-0.0673,-0.0708,-0.0715,-0.0707,-0.0709,-0.0747,-0.075,-0.0752,-0.0709,-0.0766,-0.0767,-0.0768,-0.0737,-0.0735,-0.0733,0,0,0,0,0,0,-0.0545,-0.0553,-0.0623,-0.0598,-0.0608,-0.0654,-0.0666,-0.0674,-0.0676,-0.0719,-0.0724,-0.0699,-0.0747,-0.0751,-0.0748,-0.0712,-0.0768,-0.0768,-0.0738,-0.0736,-0.0734,-0.0646,0,0,0,0,0,0,-0.0543,-0.0552,-0.0549,-0.0597,-0.0609,-0.0626,-0.0666,-0.0675,-0.0682,-0.0686,-0.0714,-0.0719,-0.0748,-0.0746,-0.0748,-0.0714,-0.0769,-0.074,-0.0737,-0.0735,-0.065,-0.0641,-0.0633,0,0,0,0,0,-0.0539,-0.0531,-0.0548,-0.0556,-0.0606,-0.0625,-0.0631,-0.0666,-0.0681,-0.0671,-0.0695,-0.0717,-0.0731,-0.0746,-0.0749,-0.0714,-0.0741,-0.0738,-0.0735,-0.0654,-0.0643,-0.0633,0,0,0,0,0,0,-0.049,-0.0537,-0.0556,-0.0563,-0.0585,-0.0633,-0.0628,-0.0651,-0.0664,-0.0663,-0.0704,-0.071,-0.0695,-0.0714,-0.073,-0.0697,-0.0737,-0.0735,-0.0675,-0.0664,-0.0656,-0.0658,-0.077,0,0,0,0,0,-0.0478,-0.0483,-0.0528,-0.0529,-0.0537,-0.0578,-0.0588,-0.0608,-0.0632,-0.0638,-0.0659,-0.0676,-0.0685,-0.0683,-0.0697,-0.0676,-0.0707,-0.0654,-0.0645,-0.0638,-0.0641,-0.0667,-0.0661,-0.0723,-0.0723,-0.0723,0,0,-0.046,-0.0485,-0.0489,-0.0518,-0.0538,-0.0538,-0.0584,-0.0587,-0.0581,-0.0638,-0.0624,-0.0646,-0.0675,-0.0658,-0.0651,-0.0668,-0.063,-0.0634,-0.0627,-0.0635,-0.0663,-0.0657,-0.0652,-0.0721,-0.0721,-0.0722,0,0,-0.0424,-0.0445,-0.0438,-0.0449,-0.0472,-0.0495,-0.0489,-0.0522,-0.0528,-0.0523,-0.0561,-0.0565,-0.0573,-0.059,-0.06,-0.0548,-0.0588,-0.0541,-0.0492,-0.0515,-0.051,-0.0507,-0.0516,-0.0514,-0.053,-0.053,-0.053,0,-0.0399,-0.0403,-0.0435,-0.0428,-0.043,-0.0468,-0.0454,-0.0463,-0.0488,-0.0489,-0.0502,-0.0525,-0.0543,-0.0537,-0.0519,-0.0527,-0.0546,-0.0529,-0.0504,-0.0502,-0.05,-0.051,-0.0509,-0.0525,-0.0526,-0.0526,-0.0527,0,-0.0368,-0.0361,-0.0352,-0.0359,-0.0359,-0.035,-0.0372,-0.0365,-0.0376,-0.0396,-0.039,-0.0423,-0.044,-0.0435,-0.0461,-0.0446,-0.0465,-0.0495,-0.0532,-0.0488,-0.0502,-0.0502,-0.0519,-0.052,-0.0522,-0.0523,0,0,-0.0336,-0.0332,-0.0327,-0.0314,-0.0322,-0.0319,-0.0298,-0.03,-0.0286,-0.0303,-0.0291,-0.0307,-0.0334,-0.0348,-0.0376,-0.039,-0.0381,-0.0427,-0.043,-0.0438,-0.0421,-0.0425,-0.0427,-0.0408,-0.0408,-0.0408,-0.0428,0,-0.0301,-0.027,-0.0279,-0.0237,-0.0223,-0.0238,-0.0216,-0.0218,-0.0225,-0.0218,-0.0253,-0.0254,-0.0297,-0.0298,-0.0319,-0.0372,-0.0382,-0.0372,-0.0463,-0.0465,-0.0476,-0.0428,-0.0409,-0.0426,-0.043,-0.043,-0.043,0,-0.0273,-0.0254,-0.0213,-0.0179,-0.0173,-0.0152,-0.0127,-0.0113,-0.0119,-0.0124,-0.0141,-0.0174,-0.0195,-0.0238,-0.0307,-0.0299,-0.035,-0.0393,-0.0395,-0.0436,-0.0471,-0.0475,-0.0428,-0.0432,-0.0432,-0.0432,-0.0432,0,-0.0244,-0.0206,-0.0168,-0.0159,-0.0131,-0.0108,-0.0092,-0.0085,-0.0063,-0.0069,-0.0056,-0.0102,-0.0109,-0.0191,-0.0273,-0.0291,-0.035,-0.0391,-0.0441,-0.0442,-0.0464,-0.0466,-0.0438,-0.0438,-0.0438,-0.0438,-0.0438,0,-0.0214,-0.0179,-0.015,-0.0129,-0.0073,-0.0069,-0.0017,-0.001,0.0009,0.0047,-0.0007,0.0014,-0.0099,-0.0145,-0.0243,-0.0333,-0.0328,-0.0425,-0.0447,-0.0429,-0.0428,-0.0474,-0.0478,-0.0439,-0.0439,-0.0439,-0.0439,0,-0.0188,-0.0173,-0.0123,-0.008,-0.0059,-0.002,0.0037,0.0073,0.0081,0.0129,0.0133,0.0107,0.0048,-0.0065,-0.018,-0.0277,-0.0377,-0.041,-0.0372,-0.0389,-0.0462,-0.0461,-0.0476,-0.0476,-0.0476,-0.0477,-0.0477,0,-0.017,-0.0146,-0.0084,-0.0046,-0.0022,0.0035,0.008,0.0106,0.0148,0.0192,0.0225,0.0193,0.0179,0.0012,-0.0157,-0.0319,-0.035,-0.041,-0.0451,-0.0446,-0.0466,-0.0464,-0.0463,-0.0436,-0.0436,-0.0436,-0.0436,0,-0.0133,-0.0115,-0.0076,0.0,0.0056,0.0122,0.0187,0.0233,0.0274,0.0326,0.0391,0.0384,0.0232,0.0082,-0.0143,-0.026,-0.0389,-0.0413,-0.0415,-0.0429,-0.041,-0.0429,-0.0429,-0.0434,-0.0435,-0.0435,-0.0435,-0.0435,-0.01,-0.0067,-0.0017,0.0056,0.0124,0.021,0.0277,0.0354,0.0444,0.0526,0.0501,0.0502,0.0309,0.0034,-0.0152,-0.0351,-0.0371,-0.0454,-0.0453,-0.0454,-0.0445,-0.0428,-0.0453,-0.0453,-0.0453,-0.0453,-0.0453,0,-0.006,-0.0024,0.0042,0.0131,0.0211,0.0242,0.0354,0.0434,0.0563,0.0613,0.0658,0.049,0.0303,0.0095,-0.0199,-0.0392,-0.0408,-0.0442,-0.0426,-0.0427,-0.0428,-0.0418,-0.0418,-0.0418,-0.0418,-0.0418,0,0,-0.0033,0.0023,0.0052,0.0187,0.026,0.0382,0.0455,0.0584,0.0659,0.0729,0.0726,0.0643,0.0377,0.0177,-0.0082,-0.0239,-0.0283,-0.0269,-0.0283,-0.0236,-0.0233,-0.0428,-0.0413,0,0,0,0,0]}],[{"header":{"parameterUnit":"m.s-1","parameterCategory":2,"la1":30.2991,"la2":30.254,"lo1":-89.0895,"lo2":-89.0444,"dy":0.0017,"dx":0.0017,"nx":28,"ny":28,"refTime":"2025-02-02T09:00:00:Z","depth":"4","parameterNumber":2,"parameterNumberName":"U-component_of_CURRENTS"},"data":[0,0,0,0,0,0,0,0,0,0,0,0,0,0,0,0,0,0,0,0,0,0,0,0,0,0,0,0,0,0,0,0,0,0,0,0,0,0,0,0,0,0,0,0,0,0,0,0,0,0,0,0,0,0,0,0,0,0,0.0688,0.0689,0,0.0725,0.0725,0.0725,0.0756,0.0756,0.0756,0.0757,0.0776,0.0776,0.0777,0,0,0,0,0,0,0,0,0,0,0,0,0,0.0641,0.0642,0.0688,0.0689,0.069,0.0725,0.0725,0.0725,0.0755,0.0756,0.0757,0.0757,0.0776,0.0776,0.0777,0,0,0,0,0,0,0,0,0,0,0,0,0,0.0666,0.0642,0.0688,0.071,0.0712,0.0725,0.0725,0.0726,0.0755,0.0756,0.0757,0.0757,0.0776,0.0776,0.0777,0.0764,0,0,0.0777,0.0777,0,0,0,0,0,0,0,0,0.0665,0.0668,0.0706,0.0708,0.0711,0.0738,0.0716,0.0738,0.0755,0.0737,0.0757,0.0758,0.0762,0.0764,0.0767,0.0765,0.0765,0.0777,0.0777,0.0777,0.0777,0,0,0,0,0,0,0,0.0663,0.0667,0.0701,0.0707,0.071,0.0717,0.0721,0.072,0.0744,0.0739,0.0742,0.0748,0.0763,0.0767,0.0768,0.0766,0.0777,0.0777,0.0777,0.0777,0.0804,0.0804,0,0,0,0,0,0,0.0661,0.0665,0.07,0.0703,0.0691,0.0717,0.0722,0.0727,0.0745,0.0748,0.0747,0.0749,0.0766,0.0768,0.0768,0.0813,0.0777,0.0777,0.0777,0.0803,0.0804,0.0804,0,0,0,0,0,0,0.066,0.0664,0.0699,0.0686,0.0691,0.0717,0.0723,0.0728,0.075,0.0751,0.0755,0.0767,0.0767,0.0768,0.0781,0.0811,0.0777,0.0777,0.0802,0.0803,0.0804,0.0863,0,0,0,0,0,0,0.0658,0.0663,0.0672,0.0686,0.0692,0.0717,0.0723,0.0728,0.0752,0.0755,0.0769,0.0771,0.0768,0.0781,0.0781,0.0811,0.0778,0.0801,0.0803,0.0804,0.0861,0.0866,0.0871,0,0,0,0,0,0.0657,0.0662,0.0672,0.0677,0.0701,0.0717,0.0721,0.074,0.0753,0.0763,0.0772,0.0771,0.0789,0.0781,0.0781,0.0812,0.0801,0.0802,0.0804,0.0858,0.0865,0.0871,0,0,0,0,0,0,0.0647,0.0666,0.0678,0.069,0.0709,0.0723,0.0734,0.075,0.0766,0.0773,0.0775,0.0776,0.0798,0.0792,0.0784,0.0821,0.0796,0.0798,0.0838,0.0844,0.0849,0.0836,0.0778,0,0,0,0,0,0.0649,0.0659,0.0679,0.0691,0.07,0.0721,0.0733,0.075,0.0763,0.0772,0.0786,0.0795,0.08,0.0812,0.0811,0.0832,0.0823,0.0852,0.0857,0.0861,0.085,0.0865,0.0871,0.0809,0.0809,0.0809,0,0,0.0649,0.0661,0.0668,0.069,0.0705,0.0722,0.073,0.0754,0.0775,0.077,0.0805,0.081,0.0806,0.0829,0.084,0.0833,0.0877,0.0863,0.0867,0.0853,0.0867,0.0873,0.0879,0.081,0.081,0.0809,0,0,0.065,0.0666,0.0675,0.069,0.0717,0.0732,0.0744,0.0773,0.0793,0.082,0.0824,0.0841,0.086,0.0864,0.0866,0.0895,0.0897,0.091,0.0937,0.0953,0.0958,0.0963,0.0973,0.0978,0.0922,0.0922,0.0922,0,0.0653,0.0666,0.0681,0.0693,0.071,0.0739,0.0757,0.0778,0.0812,0.0828,0.0837,0.0873,0.0869,0.0895,0.0908,0.0907,0.0919,0.0918,0.0961,0.0965,0.0968,0.0978,0.0982,0.0925,0.0925,0.0925,0.0924,0,0.0655,0.0675,0.0681,0.0708,0.0728,0.0748,0.0779,0.0809,0.084,0.0861,0.0901,0.0909,0.0933,0.0942,0.0932,0.0967,0.0969,0.0961,0.0947,0.0979,0.0986,0.099,0.093,0.0929,0.0928,0.0927,0,0,0.0639,0.0676,0.068,0.0698,0.0739,0.0754,0.0794,0.0831,0.0863,0.0902,0.0939,0.0956,0.0979,0.098,0.0992,0.1004,0.1039,0.1002,0.1001,0.1015,0.1084,0.1041,0.104,0.1056,0.1056,0.1057,0.1085,0,0.064,0.0665,0.0687,0.0721,0.0738,0.0777,0.081,0.0849,0.0891,0.0933,0.0955,0.0992,0.0992,0.1022,0.1035,0.1031,0.105,0.1032,0.1047,0.1047,0.1008,0.1043,0.1059,0.1087,0.1088,0.1089,0.1089,0,0.0633,0.0654,0.0685,0.0733,0.0745,0.0775,0.0838,0.0873,0.0931,0.0967,0.1017,0.1038,0.1069,0.1063,0.1089,0.1087,0.109,0.1084,0.1085,0.102,0.1009,0.1045,0.1095,0.1095,0.1094,0.1094,0.1094,0,0.0609,0.0652,0.0678,0.0693,0.0751,0.0781,0.0822,0.0886,0.0918,0.1,0.1034,0.1082,0.1113,0.1124,0.1125,0.1118,0.1142,0.1129,0.1093,0.109,0.1095,0.1089,0.1145,0.1145,0.1145,0.1145,0.1145,0,0.0594,0.0616,0.0673,0.0686,0.0727,0.0776,0.0828,0.0885,0.095,0.0991,0.1059,0.1099,0.1132,0.1151,0.1143,0.1133,0.1166,0.1095,0.1095,0.1121,0.1118,0.1098,0.1092,0.1146,0.1146,0.1145,0.1145,0,0.0561,0.0598,0.0627,0.0691,0.0716,0.0748,0.0823,0.0856,0.0941,0.0999,0.1029,0.111,0.1151,0.1171,0.1186,0.1154,0.1144,0.1135,0.1167,0.1168,0.1076,0.1073,0.1089,0.1087,0.1086,0.1085,0.1085,0,0.0542,0.0555,0.062,0.0643,0.0677,0.0729,0.0766,0.0848,0.0884,0.0999,0.1018,0.1093,0.1141,0.1127,0.1155,0.1153,0.1141,0.113,0.1089,0.1073,0.1071,0.107,0.1068,0.1083,0.1082,0.1082,0.1082,0,0.0503,0.0533,0.056,0.0607,0.0648,0.0684,0.0746,0.076,0.0859,0.0932,0.0995,0.103,0.1078,0.1096,0.1113,0.1104,0.1128,0.1118,0.1119,0.1081,0.1066,0.1065,0.1065,0.1078,0.1079,0.1079,0.1079,0,0.0474,0.0484,0.0526,0.0563,0.0611,0.0639,0.067,0.072,0.0762,0.0888,0.0905,0.0998,0.1068,0.1073,0.1082,0.108,0.1057,0.1014,0.102,0.1025,0.0991,0.0962,0.0943,0,0,0,0,0,0.0443,0.0454,0.0481,0.052,0.0564,0.0597,0.0659,0.069,0.0777,0.0801,0.0852,0.0902,0.0949,0.099,0.0973,0.1043,0.1051,0.1019,0.1,0.1057,0.1061,0.1028,0,0,0,0,0,0,0.0424,0.0448,0.0462,0.0479,0.05,0.0542,0.0582,0.0637,0.0651,0.0747,0.0772,0.0852,0.0899,0.0951,0.0958,0.097,0.094,0.1072,0.107,0.1054,0.1058,0.1062,0.1029,0,0,0,0,0]},{"header":{"parameterUnit":"m.s-1","parameterCategory":2,"la1":30.2991,"la2":30.254,"lo1":-89.0895,"lo2":-89.0444,"dy":0.0017,"dx":0.0017,"nx":28,"ny":28,"refTime":"2025-02-02T09:00:00:Z","depth":"4","parameterNumber":3,"parameterNumberName":"V-component_of_CURRENTS"},"data":[0,0,0,0,0,0,0,0,0,0,0,0,0,0,0,0,0,0,0,0,0,0,0,0,0,0,0,0,0,0,0,0,0,0,0,0,0,0,0,0,0,0,0,0,0,0,0,0,0,0,0,0,0,0,0,0,0,0,-0.0136,-0.0136,0,-0.0167,-0.0168,-0.0168,-0.0204,-0.0205,-0.0205,-0.0206,-0.0252,-0.0253,-0.0254,0,0,0,0,0,0,0,0,0,0,0,0,0,-0.0128,-0.0128,-0.0136,-0.0137,-0.0137,-0.0167,-0.0168,-0.0168,-0.0204,-0.0205,-0.0205,-0.0206,-0.0252,-0.0253,-0.0254,0,0,0,0,0,0,0,0,0,0,0,0,0,-0.0144,-0.0128,-0.0136,-0.0157,-0.0159,-0.0167,-0.0168,-0.0168,-0.0204,-0.0205,-0.0205,-0.0206,-0.0251,-0.0253,-0.0254,-0.025,0,0,-0.0258,-0.0259,0,0,0,0,0,0,0,0,-0.0143,-0.0144,-0.0154,-0.0156,-0.0158,-0.0181,-0.0181,-0.0196,-0.0204,-0.0189,-0.0206,-0.0206,-0.0228,-0.0231,-0.0238,-0.0252,-0.0254,-0.0258,-0.0259,-0.0259,-0.026,0,0,0,0,0,0,0,-0.0142,-0.0143,-0.015,-0.0154,-0.0157,-0.0171,-0.0174,-0.0185,-0.0207,-0.019,-0.0193,-0.0193,-0.023,-0.0237,-0.024,-0.0255,-0.0258,-0.0259,-0.026,-0.0261,-0.0283,-0.0283,0,0,0,0,0,0,-0.0132,-0.0142,-0.0149,-0.0151,-0.015,-0.0171,-0.0174,-0.0174,-0.0206,-0.0211,-0.0193,-0.0195,-0.0234,-0.0238,-0.0241,-0.025,-0.0259,-0.0261,-0.0261,-0.0283,-0.0283,-0.0283,0,0,0,0,0,0,-0.0132,-0.0133,-0.0148,-0.0146,-0.0149,-0.017,-0.017,-0.0175,-0.0186,-0.0207,-0.0213,-0.02,-0.0235,-0.0239,-0.0248,-0.0252,-0.0261,-0.0262,-0.0283,-0.0283,-0.0283,-0.0261,0,0,0,0,0,0,-0.0132,-0.0133,-0.0133,-0.0145,-0.0148,-0.0154,-0.017,-0.0175,-0.0184,-0.0188,-0.0215,-0.022,-0.0236,-0.0245,-0.0249,-0.0254,-0.0263,-0.0284,-0.0283,-0.0283,-0.0262,-0.026,-0.0258,0,0,0,0,0,-0.0131,-0.0126,-0.0133,-0.0134,-0.0147,-0.0153,-0.0156,-0.0175,-0.0184,-0.0188,-0.0202,-0.0219,-0.0246,-0.0246,-0.025,-0.0256,-0.0284,-0.0283,-0.0283,-0.0263,-0.026,-0.0258,0,0,0,0,0,0,-0.0125,-0.0129,-0.0137,-0.0134,-0.0144,-0.0159,-0.0162,-0.0173,-0.0188,-0.0191,-0.0213,-0.0218,-0.0231,-0.0241,-0.0241,-0.0261,-0.0269,-0.027,-0.0253,-0.0251,-0.0249,-0.0235,-0.0265,0,0,0,0,0,-0.0122,-0.012,-0.0128,-0.0129,-0.0129,-0.0146,-0.0151,-0.0163,-0.0174,-0.0182,-0.0203,-0.022,-0.0231,-0.0238,-0.0253,-0.0259,-0.0268,-0.0266,-0.0264,-0.0263,-0.0254,-0.0268,-0.0267,-0.0281,-0.0281,-0.0281,0,0,-0.0121,-0.0122,-0.0123,-0.0127,-0.0135,-0.0135,-0.0151,-0.0156,-0.0158,-0.0183,-0.0196,-0.0216,-0.0231,-0.0241,-0.0247,-0.0251,-0.0264,-0.0262,-0.026,-0.0252,-0.0267,-0.0266,-0.0265,-0.0281,-0.0281,-0.0281,0,0,-0.0115,-0.0117,-0.0113,-0.0114,-0.012,-0.0128,-0.0128,-0.0145,-0.0153,-0.0162,-0.0182,-0.0196,-0.022,-0.0229,-0.0236,-0.0229,-0.0255,-0.0244,-0.0223,-0.0237,-0.0236,-0.0235,-0.0247,-0.0248,-0.0241,-0.0241,-0.0241,0,-0.0115,-0.0107,-0.0114,-0.0106,-0.0104,-0.0123,-0.0116,-0.0125,-0.0145,-0.0147,-0.0163,-0.0197,-0.021,-0.0215,-0.0214,-0.0225,-0.024,-0.023,-0.0234,-0.0234,-0.0233,-0.0246,-0.0247,-0.024,-0.024,-0.0241,-0.0241,0,-0.01,-0.0096,-0.0091,-0.0087,-0.0088,-0.0084,-0.009,-0.0099,-0.0114,-0.0125,-0.014,-0.0164,-0.0183,-0.0194,-0.02,-0.0205,-0.022,-0.0232,-0.0239,-0.023,-0.0245,-0.0246,-0.0239,-0.0239,-0.0239,-0.024,0,0,-0.0095,-0.0083,-0.0082,-0.0071,-0.0074,-0.0069,-0.0069,-0.007,-0.0067,-0.0097,-0.0097,-0.012,-0.0144,-0.0151,-0.0174,-0.0182,-0.019,-0.0203,-0.0204,-0.0214,-0.0226,-0.0235,-0.0237,-0.021,-0.021,-0.021,-0.0238,0,-0.0082,-0.006,-0.0061,-0.0042,-0.0028,-0.0037,-0.0032,-0.0036,-0.005,-0.0059,-0.0082,-0.0097,-0.0125,-0.0138,-0.0152,-0.018,-0.0192,-0.0181,-0.0234,-0.0235,-0.0243,-0.0238,-0.021,-0.0239,-0.0239,-0.024,-0.024,0,-0.0063,-0.0049,-0.0026,-0.0006,-0.0,0.0004,0.0013,0.0013,0.0001,-0.0012,-0.0037,-0.0063,-0.0082,-0.0108,-0.0155,-0.0151,-0.0182,-0.0205,-0.0208,-0.0222,-0.0246,-0.025,-0.0242,-0.0242,-0.0242,-0.0242,-0.0241,0,-0.004,-0.0021,0.0,0.0008,0.0022,0.003,0.0031,0.0025,0.0037,0.0012,0.0011,-0.003,-0.0047,-0.0095,-0.0149,-0.0154,-0.02,-0.0214,-0.0252,-0.0253,-0.0246,-0.0247,-0.0241,-0.0241,-0.0241,-0.024,-0.024,0,-0.0016,0.0003,0.0013,0.0029,0.0058,0.0055,0.0078,0.0069,0.0067,0.0085,0.0033,0.003,-0.0044,-0.0082,-0.0138,-0.0199,-0.0196,-0.0243,-0.0259,-0.0237,-0.0236,-0.0247,-0.0247,-0.0242,-0.0241,-0.0241,-0.0241,0,0.001,0.0015,0.0046,0.0064,0.0071,0.0091,0.0115,0.013,0.0116,0.0135,0.0129,0.0082,0.002,-0.0056,-0.0131,-0.0178,-0.0239,-0.0262,-0.0229,-0.0245,-0.0285,-0.0284,-0.0302,-0.0303,-0.0303,-0.0304,-0.0304,0,0.0028,0.0044,0.0074,0.0095,0.0103,0.0131,0.0152,0.0153,0.017,0.0168,0.0179,0.0125,0.0083,-0.0027,-0.012,-0.0235,-0.0251,-0.0281,-0.0282,-0.0276,-0.029,-0.0288,-0.0287,-0.0305,-0.0305,-0.0305,-0.0305,0,0.0057,0.0063,0.0086,0.0127,0.0154,0.0192,0.0218,0.0241,0.0245,0.0239,0.0228,0.0163,0.0091,-0.0017,-0.0112,-0.0193,-0.0261,-0.0286,-0.0285,-0.0287,-0.0279,-0.0292,-0.029,-0.0307,-0.0306,-0.0306,-0.0306,0,0.0074,0.0093,0.0117,0.0156,0.0194,0.0235,0.0253,0.0273,0.029,0.0285,0.0282,0.0194,0.0142,0.0005,-0.008,-0.0169,-0.019,-0.0208,-0.0212,-0.0211,-0.0184,-0.0161,-0.016,0,0,0,0,0,0.0087,0.0107,0.0144,0.0185,0.0226,0.0246,0.0288,0.0301,0.0314,0.0316,0.0302,0.0233,0.01,0.0035,-0.0053,-0.01,-0.0214,-0.0207,-0.0239,-0.0315,-0.0313,-0.0298,0,0,0,0,0,0,0.0093,0.0125,0.0144,0.0201,0.0232,0.0277,0.0305,0.0317,0.0317,0.0316,0.0244,0.0211,0.0075,0.0148,-0.0056,-0.0085,-0.0116,-0.0273,-0.0275,-0.0316,-0.0315,-0.0313,-0.0297,0,0,0,0,0]}]]